Location: Newark
(35.5300°N, 14.3000°E)
Time: 12:04:36
(UTC+00:00)

Transit 4A - Pass Details

Date: 02 December 2019
Orbit: 871 x 973 km, 66.8° (Epoch: 17 January)

Event Time Altitude Azimuth Distance (km) Brightness Sun altitude
Rises 18:53:51 0° 246° (WSW) 3,618 11.8 -36.8°
Reaches altitude 10° 18:57:05 10° 262° (W) 2,660 11.0 -37.5°
Maximum altitude 19:01:38 21° 310° (NW) 1,962 9.9 -38.4°
Enters shadow 19:02:39 20° 323° (NW) 1,997 9.9 -38.6°
